Home   Weather   Ghent   Past weeks

Flag for Belgium Past Weather in Ghent, Belgium — Yesterday and Last 2 Weeks

Now
35 °F

Chilly.


Feels Like: N/A
Forecast: 35 / 51 °F
Wind: N/A

Location: Munte

Current Time: Apr 26, 2017 at 8:07:27 am

Latest Report: Apr 26, 2017 at 7:00 am


Visibility: 11 mi

Pressure: 29.91 "Hg

Humidity: 94%

Dew Point: 33 °F

Location of GhentLocation

Past Weather in Ghent — Graph

°F

Ghent Temperature Yesterday

Maximum temperature yesterday: 48 °F (at 5:00 pm)
Minimum temperature yesterday: 39 °F (at 8:00 am)
Average temperature yesterday: 44 °F

High & Low Weather Summary for the Past Weeks

 TemperatureHumidityPressure
High58 °F (Apr 24, 5:00 pm)100% (Apr 15, 6:00 am)30.67 "Hg (Apr 15, 6:00 am)
Low30 °F (Apr 20, 6:00 am)28% (Apr 20, 5:00 pm)29.80 "Hg (Apr 25, 2:00 am)
Average47 °F68%30.22 "Hg
* Reported Apr 11 7:00 am — Apr 26 7:00 am, Ghent, Weather by CustomWeather, © 2017

Note: Actual official high and low records may vary slightly from our data, if they occured in-between our weather recording intervals... More about our weather records

Advertising

Ghent Weather History for the Previous 24 Hours

Scroll right to see more
 ConditionsComfort  
Time TempWeatherWind HumidityBarometerVisibility
7:00 am
Wed, Apr 26
35 °FChilly.N/A94%29.91 "Hg11 mi
6:00 am34 °FChilly.N/A95%29.90 "Hg10 mi
5:00 am34 °FChilly.N/A94%29.90 "Hg10 mi
4:00 am36 °FChilly.N/A90%29.90 "Hg12 mi
3:00 am36 °FChilly.N/A85%29.90 "Hg12 mi
2:00 am36 °FChilly.N/A84%29.90 "Hg12 mi
1:00 am36 °FChilly.N/A83%29.90 "Hg12 mi
12:00 am39 °FChilly.2 mph69%29.90 "Hg12 mi
11:00 pm
Tue, Apr 25
40 °FChilly.N/A63%29.90 "Hg12 mi
10:00 pm39 °FChilly.N/A65%29.90 "Hg12 mi
9:00 pm42 °FQuite cool.N/A54%29.90 "Hg12 mi
8:00 pm45 °FCool.3 mph47%29.89 "Hg12 mi
7:00 pm47 °FCool.3 mph41%29.89 "Hg12 mi
6:00 pm47 °FCool.5 mph45%29.90 "Hg12 mi
5:00 pm48 °FCool.6 mph45%29.89 "Hg12 mi
4:00 pm47 °FCool.3 mph58%29.90 "Hg12 mi
3:00 pm41 °FLight rain. Cloudy.7 mph67%29.91 "Hg12 mi
2:00 pm47 °FCool.6 mph60%29.90 "Hg12 mi
1:00 pm45 °FQuite cool.3 mph72%29.90 "Hg12 mi
12:00 pm42 °FRain. Cloudy.3 mph80%29.89 "Hg9 mi
11:00 am44 °FQuite cool.5 mph64%29.88 "Hg12 mi
10:00 am43 °FQuite cool.5 mph62%29.87 "Hg12 mi
9:00 am43 °FQuite cool.3 mph63%29.86 "Hg12 mi
8:00 am39 °FChilly.2 mph69%29.85 "Hg12 mi
Weather by CustomWeather, © 2017

See weather overviewHow to use our weather pages